Satellite-Ground Cal/Val Region Overpasses Predictions

Prediction of Satellite NPP Overpassing Cal/Val Region: PacNW

Region Location: (Latitude: 10.00, Longitude: 139.50) to (Latitude: 22.70, Longitude: 165.60).

Table of predicted overpasses for the next 14.0 days since TLE Epoch: 4/9/2019
Interval Starting Time Starting Location Ending Time Ending Location
1 04/09/2019 14:29:31 ( 11.43, 165.60) 04/09/2019 14:29:55 ( 10.02, 165.28)
2 04/09/2019 16:07:49 ( 22.69, 142.92) 04/09/2019 16:11:25 ( 10.02, 139.90)
3 04/10/2019 03:16:55 ( 10.05, 150.43) 04/10/2019 03:20:30 ( 22.68, 147.42)
4 04/10/2019 15:48:47 ( 22.69, 147.68) 04/10/2019 15:52:23 ( 10.01, 144.66)
5 04/11/2019 02:57:52 ( 10.01, 155.20) 04/11/2019 03:01:28 ( 22.69, 152.18)
6 04/11/2019 15:29:44 ( 22.68, 152.43) 04/11/2019 15:33:19 ( 10.06, 149.43)
7 04/12/2019 02:38:49 ( 10.02, 159.96) 04/12/2019 02:42:25 ( 22.70, 156.94)
8 04/12/2019 15:10:42 ( 22.67, 157.19) 04/12/2019 15:14:17 ( 10.05, 154.19)
9 04/13/2019 02:19:47 ( 10.03, 164.72) 04/13/2019 02:23:22 ( 22.65, 161.71)
10 04/13/2019 14:51:39 ( 22.65, 161.95) 04/13/2019 14:55:14 ( 10.03, 158.95)
11 04/14/2019 03:42:14 ( 10.05, 144.10) 04/14/2019 03:45:49 ( 22.67, 141.10)
12 04/14/2019 14:33:55 ( 18.07, 165.59) 04/14/2019 14:36:12 ( 10.02, 163.71)
13 04/14/2019 16:14:06 ( 22.69, 141.35) 04/14/2019 16:16:16 ( 15.07, 139.50)
14 04/15/2019 03:23:11 ( 10.00, 148.87) 04/15/2019 03:26:47 ( 22.68, 145.85)
15 04/15/2019 15:55:03 ( 22.68, 146.11) 04/15/2019 15:58:39 ( 10.00, 143.09)
16 04/16/2019 03:04:08 ( 10.01, 153.63) 04/16/2019 03:07:44 ( 22.70, 150.61)
17 04/16/2019 15:36:01 ( 22.67, 150.86) 04/16/2019 15:39:36 ( 10.05, 147.86)
18 04/17/2019 02:45:06 ( 10.03, 158.39) 04/17/2019 02:48:41 ( 22.65, 155.39)
19 04/17/2019 15:16:59 ( 22.66, 155.62) 04/17/2019 15:20:34 ( 10.04, 152.62)
20 04/18/2019 02:26:03 ( 10.04, 163.15) 04/18/2019 02:29:38 ( 22.66, 160.14)
21 04/18/2019 14:57:56 ( 22.65, 160.38) 04/18/2019 15:01:31 ( 10.03, 157.38)
22 04/19/2019 02:09:48 ( 19.86, 165.60) 04/19/2019 02:10:36 ( 22.68, 164.90)
23 04/19/2019 03:48:30 ( 10.00, 142.54) 04/19/2019 03:52:06 ( 22.69, 139.52)
24 04/19/2019 14:38:53 ( 22.69, 165.15) 04/19/2019 14:42:29 ( 10.01, 162.14)
25 04/19/2019 16:20:23 ( 22.68, 139.78) 04/19/2019 16:20:41 ( 21.63, 139.51)
26 04/20/2019 03:29:27 ( 10.02, 147.30) 04/20/2019 03:33:02 ( 22.64, 144.30)
27 04/20/2019 16:01:20 ( 22.67, 144.53) 04/20/2019 16:04:55 ( 10.05, 141.53)
28 04/21/2019 03:10:25 ( 10.03, 152.06) 04/21/2019 03:14:00 ( 22.66, 149.06)
29 04/21/2019 15:42:18 ( 22.65, 149.29) 04/21/2019 15:45:53 ( 10.04, 146.29)
30 04/22/2019 02:51:22 ( 10.05, 156.82) 04/22/2019 02:54:57 ( 22.67, 153.81)
31 04/22/2019 15:23:14 ( 22.70, 154.07) 04/22/2019 15:26:50 ( 10.02, 151.05)


NCC Satellite Cal/Val Overpasses Prediction Service
